Time,TemperatureF,DewpointF,PressureIn,WindDirection,WindDirectionDegrees,WindSpeedMPH,WindSpeedGustMPH,Humidity,HourlyPrecipIn,Conditions,Clouds,dailyrainin,SoftwareType,DateUTC
2013-01-15 00:00:00,64.6,58.9,29.66,SSW,202,0.0,0.0,82,0.00,,,0.00,WUHU21623XXSP,2013-01-15 05:00:00,
2013-01-15 00:02:00,64.6,58.9,29.66,SSW,202,0.0,0.0,82,0.00,,,0.00,WUHU21623XXSP,2013-01-15 05:02:00,
2013-01-15 00:08:00,64.6,59.3,29.66,SSW,202,0.0,0.0,83,0.00,,,0.00,WUHU21623XXSP,2013-01-15 05:08:00,
2013-01-15 00:13:00,64.6,59.3,29.66,SSW,202,0.0,0.0,83,0.00,,,0.00,WUHU21623XXSP,2013-01-15 05:13:00,
2013-01-15 00:18:00,64.6,59.3,29.66,SSW,202,0.0,0.0,83,0.00,,,0.00,WUHU21623XXSP,2013-01-15 05:18:00,
2013-01-15 00:23:00,64.6,59.3,29.66,SSW,202,0.0,0.0,83,0.00,,,0.00,WUHU21623XXSP,2013-01-15 05:23:00,
2013-01-15 00:28:00,64.6,59.3,29.66,SSW,202,0.0,1.3,83,0.00,,,0.00,WUHU21623XXSP,2013-01-15 05:28:00,
2013-01-15 00:33:00,64.6,59.3,29.66,SSW,202,0.0,1.3,83,0.00,,,0.00,WUHU21623XXSP,2013-01-15 05:33:00,
2013-01-15 00:38:00,64.8,59.5,29.66,SSE,157,0.0,0.7,83,0.00,,,0.00,WUHU21623XXSP,2013-01-15 05:38:00,
2013-01-15 00:43:00,64.9,59.3,29.65,SSE,157,0.0,0.7,82,0.00,,,0.00,WUHU21623XXSP,2013-01-15 05:43:00,
2013-01-15 00:48:00,64.9,59.3,29.66,South,180,0.0,2.7,82,0.00,,,0.00,WUHU21623XXSP,2013-01-15 05:48:00,
2013-01-15 00:53:00,65.1,59.5,29.66,South,180,0.0,2.7,82,0.00,,,0.00,WUHU21623XXSP,2013-01-15 05:53:00,
2013-01-15 00:58:00,65.3,59.3,29.66,SSW,202,0.0,1.6,81,0.00,,,0.00,WUHU21623XXSP,2013-01-15 05:58:00,
2013-01-15 01:03:00,65.5,59.5,29.66,SSW,202,0.0,1.6,81,0.00,,,0.00,WUHU21623XXSP,2013-01-15 06:03:00,
2013-01-15 01:08:00,65.3,59.3,29.66,South,180,0.0,2.0,81,0.00,,,0.00,WUHU21623XXSP,2013-01-15 06:08:00,
2013-01-15 01:13:00,65.3,59.3,29.66,SSW,202,0.0,2.0,81,0.00,,,0.00,WUHU21623XXSP,2013-01-15 06:13:00,
2013-01-15 01:18:00,65.3,59.3,29.66,SSW,202,0.0,0.0,81,0.00,,,0.00,WUHU21623XXSP,2013-01-15 06:18:00,
2013-01-15 01:23:00,65.1,59.1,29.65,SSW,202,0.0,0.0,81,0.00,,,0.00,WUHU21623XXSP,2013-01-15 06:23:00,
2013-01-15 01:29:00,65.1,59.1,29.65,SSE,157,2.9,2.9,81,0.00,,,0.00,WUHU21623XXSP,2013-01-15 06:29:00,
2013-01-15 01:33:00,65.1,59.1,29.65,SSE,157,0.0,2.9,81,0.00,,,0.00,WUHU21623XXSP,2013-01-15 06:33:00,
2013-01-15 01:39:00,64.8,59.1,29.65,SSE,157,0.0,2.5,82,0.00,,,0.00,WUHU21623XXSP,2013-01-15 06:39:00,
2013-01-15 01:44:00,64.4,58.8,29.65,SSE,157,0.0,0.0,82,0.00,,,0.00,WUHU21623XXSP,2013-01-15 06:44:00,
2013-01-15 01:49:00,64.2,58.6,29.65,SSE,157,0.0,0.0,82,0.00,,,0.00,WUHU21623XXSP,2013-01-15 06:49:00,
2013-01-15 01:54:00,64.0,58.8,29.65,SSE,157,0.0,0.0,83,0.00,,,0.00,WUHU21623XXSP,2013-01-15 06:54:00,
2013-01-15 01:59:00,63.7,58.1,29.66,SSE,157,0.0,0.0,82,0.00,,,0.00,WUHU21623XXSP,2013-01-15 06:59:00,
2013-01-15 02:04:00,63.3,58.0,29.66,SSE,157,0.0,0.0,83,0.00,,,0.00,WUHU21623XXSP,2013-01-15 07:04:00,
2013-01-15 02:09:00,63.0,58.0,29.66,SSE,157,0.0,0.0,84,0.00,,,0.00,WUHU21623XXSP,2013-01-15 07:09:00,
2013-01-15 02:14:00,62.6,57.7,29.66,SSE,157,0.0,0.0,84,0.00,,,0.00,WUHU21623XXSP,2013-01-15 07:14:00,
2013-01-15 02:19:00,62.4,57.5,29.66,SSE,157,0.0,0.0,84,0.00,,,0.00,WUHU21623XXSP,2013-01-15 07:19:00,
2013-01-15 02:24:00,62.1,57.1,29.66,SSE,157,0.0,0.0,84,0.00,,,0.00,WUHU21623XXSP,2013-01-15 07:24:00,
2013-01-15 02:29:00,61.9,57.0,29.66,SSE,157,0.0,0.0,84,0.00,,,0.00,WUHU21623XXSP,2013-01-15 07:29:00,
2013-01-15 02:34:00,61.5,57.0,29.66,SSE,157,0.0,0.0,85,0.00,,,0.00,WUHU21623XXSP,2013-01-15 07:34:00,
2013-01-15 02:39:00,61.5,57.0,29.66,SSE,157,0.0,0.0,85,0.00,,,0.00,WUHU21623XXSP,2013-01-15 07:39:00,
2013-01-15 02:44:00,61.0,56.5,29.66,SSE,157,0.0,0.0,85,0.00,,,0.00,WUHU21623XXSP,2013-01-15 07:44:00,
2013-01-15 02:49:00,61.0,56.5,29.66,SSE,157,0.0,0.0,85,0.00,,,0.00,WUHU21623XXSP,2013-01-15 07:49:00,
2013-01-15 02:54:00,61.0,56.8,29.66,SSE,157,0.0,0.0,86,0.00,,,0.00,WUHU21623XXSP,2013-01-15 07:54:00,
2013-01-15 02:59:00,61.0,56.8,29.66,SSE,157,0.0,0.0,86,0.00,,,0.00,WUHU21623XXSP,2013-01-15 07:59:00,
2013-01-15 03:04:00,61.0,56.8,29.66,SSE,157,0.0,0.0,86,0.00,,,0.00,WUHU21623XXSP,2013-01-15 08:04:00,
2013-01-15 03:09:00,60.6,56.4,29.66,SSE,157,0.0,0.0,86,0.00,,,0.00,WUHU21623XXSP,2013-01-15 08:09:00,
2013-01-15 03:14:00,60.6,56.4,29.65,SSE,157,0.0,0.0,86,0.00,,,0.00,WUHU21623XXSP,2013-01-15 08:14:00,
2013-01-15 03:19:00,60.6,56.8,29.65,SSE,157,0.0,0.0,87,0.00,,,0.00,WUHU21623XXSP,2013-01-15 08:19:00,
2013-01-15 03:24:00,60.6,56.8,29.65,SSE,157,0.0,0.0,87,0.00,,,0.00,WUHU21623XXSP,2013-01-15 08:24:00,
2013-01-15 03:29:00,60.6,56.8,29.65,SSE,157,0.0,0.0,87,0.00,,,0.00,WUHU21623XXSP,2013-01-15 08:29:00,
2013-01-15 03:34:00,60.6,57.1,29.65,SSE,157,0.0,0.0,88,0.00,,,0.00,WUHU21623XXSP,2013-01-15 08:34:00,
2013-01-15 03:39:00,60.6,57.1,29.65,SSE,157,0.0,0.0,88,0.00,,,0.00,WUHU21623XXSP,2013-01-15 08:39:00,
2013-01-15 03:44:00,61.0,57.4,29.64,SSE,157,0.0,0.0,88,0.00,,,0.00,WUHU21623XXSP,2013-01-15 08:44:00,
2013-01-15 03:49:00,61.2,57.6,29.64,SSE,157,0.0,0.0,88,0.00,,,0.00,WUHU21623XXSP,2013-01-15 08:49:00,
2013-01-15 03:54:00,61.3,57.8,29.64,SSE,157,0.0,0.0,88,0.00,,,0.00,WUHU21623XXSP,2013-01-15 08:54:00,
2013-01-15 03:59:00,61.3,57.8,29.64,SSE,157,0.0,0.0,88,0.00,,,0.00,WUHU21623XXSP,2013-01-15 08:59:00,
2013-01-15 04:04:00,61.5,58.0,29.64,SSE,157,0.0,0.0,88,0.00,,,0.00,WUHU21623XXSP,2013-01-15 09:04:00,
2013-01-15 04:09:00,61.5,58.0,29.63,SSE,157,0.0,0.0,88,0.00,,,0.00,WUHU21623XXSP,2013-01-15 09:09:00,
2013-01-15 04:14:00,61.5,58.0,29.63,SSE,157,0.0,0.0,88,0.00,,,0.00,WUHU21623XXSP,2013-01-15 09:14:00,
2013-01-15 04:19:00,61.3,57.8,29.63,SSE,157,0.0,0.0,88,0.00,,,0.00,WUHU21623XXSP,2013-01-15 09:19:00,
2013-01-15 04:24:00,61.3,57.8,29.63,SSE,157,0.0,0.0,88,0.00,,,0.00,WUHU21623XXSP,2013-01-15 09:24:00,
2013-01-15 04:29:00,61.2,57.6,29.63,SSE,157,0.0,0.0,88,0.00,,,0.00,WUHU21623XXSP,2013-01-15 09:29:00,
2013-01-15 04:35:00,61.0,57.4,29.63,SSE,157,0.0,0.0,88,0.00,,,0.00,WUHU21623XXSP,2013-01-15 09:35:00,
2013-01-15 04:40:00,60.6,56.8,29.63,SSE,157,0.0,0.0,87,0.00,,,0.00,WUHU21623XXSP,2013-01-15 09:40:00,
2013-01-15 04:45:00,60.1,56.2,29.63,SSE,157,0.0,0.0,87,0.00,,,0.00,WUHU21623XXSP,2013-01-15 09:45:00,
2013-01-15 04:50:00,59.9,56.4,29.63,SSE,157,0.0,0.0,88,0.00,,,0.00,WUHU21623XXSP,2013-01-15 09:50:00,
2013-01-15 04:55:00,59.9,56.4,29.63,SSE,157,0.0,0.0,88,0.00,,,0.00,WUHU21623XXSP,2013-01-15 09:55:00,
2013-01-15 05:00:00,59.7,56.2,29.63,SSE,157,0.0,0.0,88,0.00,,,0.00,WUHU21623XXSP,2013-01-15 10:00:00,
2013-01-15 05:05:00,59.5,56.0,29.63,SSE,157,0.0,0.0,88,0.00,,,0.00,WUHU21623XXSP,2013-01-15 10:05:00,
2013-01-15 05:10:00,59.5,56.3,29.63,SSE,157,0.0,0.0,89,0.00,,,0.00,WUHU21623XXSP,2013-01-15 10:10:00,
2013-01-15 05:15:00,59.2,56.0,29.63,SSE,157,0.0,0.0,89,0.00,,,0.00,WUHU21623XXSP,2013-01-15 10:15:00,
2013-01-15 05:20:00,59.0,56.0,29.63,SSE,157,0.0,0.0,89,0.00,,,0.00,WUHU21623XXSP,2013-01-15 10:20:00,
2013-01-15 05:25:00,58.8,55.9,29.62,South,180,0.0,0.0,90,0.00,,,0.00,WUHU21623XXSP,2013-01-15 10:25:00,
2013-01-15 05:30:00,58.8,55.9,29.62,SSE,157,0.0,0.0,90,0.00,,,0.00,WUHU21623XXSP,2013-01-15 10:30:00,
2013-01-15 05:35:00,58.8,55.9,29.63,SSE,157,0.0,0.0,90,0.00,,,0.00,WUHU21623XXSP,2013-01-15 10:35:00,
2013-01-15 05:40:00,58.8,55.9,29.63,SSE,157,0.0,0.0,90,0.00,,,0.00,WUHU21623XXSP,2013-01-15 10:40:00,
2013-01-15 05:45:00,58.6,55.8,29.63,SSE,157,0.0,0.0,90,0.00,,,0.00,WUHU21623XXSP,2013-01-15 10:45:00,
2013-01-15 05:50:00,58.5,55.6,29.63,SSE,157,0.0,0.0,90,0.00,,,0.00,WUHU21623XXSP,2013-01-15 10:50:00,
2013-01-15 05:55:00,58.5,55.6,29.63,South,180,0.0,0.0,90,0.00,,,0.00,WUHU21623XXSP,2013-01-15 10:55:00,
2013-01-15 06:00:00,58.3,55.4,29.63,South,180,0.0,0.0,90,0.00,,,0.00,WUHU21623XXSP,2013-01-15 11:00:00,
2013-01-15 06:05:00,58.3,55.4,29.63,SSW,202,0.0,0.0,90,0.00,,,0.00,WUHU21623XXSP,2013-01-15 11:05:00,
2013-01-15 06:10:00,58.3,55.7,29.63,SSW,202,0.0,0.0,91,0.00,,,0.00,WUHU21623XXSP,2013-01-15 11:10:00,
2013-01-15 06:15:00,58.1,55.5,29.62,SSW,202,0.0,0.0,91,0.00,,,0.00,WUHU21623XXSP,2013-01-15 11:15:00,
2013-01-15 06:20:00,58.1,55.5,29.63,SSW,202,0.0,0.0,91,0.00,,,0.00,WUHU21623XXSP,2013-01-15 11:20:00,
2013-01-15 06:25:00,58.1,55.5,29.63,SE,135,0.0,0.0,91,0.00,,,0.00,WUHU21623XXSP,2013-01-15 11:25:00,
2013-01-15 06:30:00,57.9,55.3,29.63,SSE,157,0.0,0.0,91,0.00,,,0.00,WUHU21623XXSP,2013-01-15 11:30:00,
2013-01-15 06:35:00,57.9,55.3,29.63,SSE,157,0.0,0.0,91,0.00,,,0.00,WUHU21623XXSP,2013-01-15 11:35:00,
2013-01-15 06:40:00,57.7,55.1,29.63,SSE,157,0.0,0.0,91,0.00,,,0.00,WUHU21623XXSP,2013-01-15 11:40:00,
2013-01-15 06:45:00,57.7,55.1,29.64,SSE,157,0.0,0.0,91,0.00,,,0.00,WUHU21623XXSP,2013-01-15 11:45:00,
2013-01-15 06:50:00,57.6,55.0,29.64,SSE,157,0.0,0.0,91,0.00,,,0.00,WUHU21623XXSP,2013-01-15 11:50:00,
2013-01-15 06:55:00,57.6,55.0,29.64,SSE,157,0.0,0.0,91,0.00,,,0.00,WUHU21623XXSP,2013-01-15 11:55:00,
2013-01-15 07:00:00,57.4,54.8,29.64,SSW,202,0.0,0.0,91,0.00,,,0.00,WUHU21623XXSP,2013-01-15 12:00:00,
2013-01-15 07:05:00,57.4,54.8,29.65,SSW,202,0.0,0.0,91,0.00,,,0.00,WUHU21623XXSP,2013-01-15 12:05:00,
2013-01-15 07:10:00,57.4,54.8,29.65,SSW,202,0.0,0.0,91,0.00,,,0.00,WUHU21623XXSP,2013-01-15 12:10:00,
2013-01-15 07:15:00,57.4,54.8,29.65,SSW,202,0.0,0.0,91,0.00,,,0.00,WUHU21623XXSP,2013-01-15 12:15:00,
2013-01-15 07:20:00,57.4,54.8,29.65,SSW,202,0.0,0.0,91,0.00,,,0.00,WUHU21623XXSP,2013-01-15 12:20:00,
2013-01-15 07:25:00,57.2,54.6,29.65,SSW,202,0.0,0.0,91,0.00,,,0.00,WUHU21623XXSP,2013-01-15 12:25:00,
2013-01-15 07:30:00,57.4,54.8,29.65,SSW,202,0.0,0.0,91,0.00,,,0.00,WUHU21623XXSP,2013-01-15 12:30:00,
2013-01-15 07:35:00,57.4,54.8,29.65,SSW,202,0.0,0.0,91,0.00,,,0.00,WUHU21623XXSP,2013-01-15 12:35:00,
2013-01-15 07:40:00,57.4,54.6,29.65,SSW,202,0.0,0.0,91,0.00,,,0.00,WUHU21623XXSP,2013-01-15 12:40:00,
2013-01-15 07:45:00,57.4,54.8,29.66,SSW,202,0.0,0.0,91,0.00,,,0.00,WUHU21623XXSP,2013-01-15 12:45:00,
2013-01-15 07:50:00,57.4,54.8,29.65,SSW,202,0.0,0.0,91,0.00,,,0.00,WUHU21623XXSP,2013-01-15 12:50:00,
2013-01-15 07:55:00,57.6,55.0,29.66,SSW,202,0.0,0.0,91,0.00,,,0.00,WUHU21623XXSP,2013-01-15 12:55:00,
2013-01-15 08:00:00,57.7,55.1,29.66,SSW,202,0.0,0.0,91,0.00,,,0.00,WUHU21623XXSP,2013-01-15 13:00:00,
2013-01-15 08:05:00,57.7,55.1,29.66,SSW,202,0.0,0.0,91,0.00,,,0.00,WUHU21623XXSP,2013-01-15 13:05:00,
2013-01-15 08:11:00,57.9,55.3,29.66,SSW,202,0.0,0.0,91,0.00,,,0.00,WUHU21623XXSP,2013-01-15 13:11:00,
2013-01-15 08:15:00,58.3,55.7,29.66,SSW,202,0.0,0.0,91,0.00,,,0.00,WUHU21623XXSP,2013-01-15 13:15:00,
2013-01-15 08:20:00,58.5,55.9,29.66,SSW,202,0.0,0.0,91,0.00,,,0.00,WUHU21623XXSP,2013-01-15 13:20:00,
2013-01-15 08:26:00,58.8,56.2,29.66,SSW,202,0.0,0.0,91,0.00,,,0.00,WUHU21623XXSP,2013-01-15 13:26:00,
2013-01-15 08:31:00,58.8,56.2,29.66,SSW,202,0.0,0.0,91,0.00,,,0.00,WUHU21623XXSP,2013-01-15 13:31:00,
2013-01-15 08:35:00,59.4,56.8,29.66,SW,225,0.0,0.0,91,0.00,,,0.00,WUHU21623XXSP,2013-01-15 13:35:00,
2013-01-15 08:41:00,59.7,56.8,29.66,SW,225,0.0,0.0,90,0.00,,,0.00,WUHU21623XXSP,2013-01-15 13:41:00,
2013-01-15 08:46:00,60.3,57.4,29.67,SW,225,0.0,0.0,90,0.00,,,0.00,WUHU21623XXSP,2013-01-15 13:46:00,
2013-01-15 08:51:00,60.6,58.0,29.67,SW,225,0.0,0.0,91,0.00,,,0.00,WUHU21623XXSP,2013-01-15 13:51:00,
2013-01-15 08:56:00,61.2,58.6,29.66,SW,225,0.0,0.0,91,0.00,,,0.00,WUHU21623XXSP,2013-01-15 13:56:00,
2013-01-15 09:01:00,61.5,58.9,29.67,SW,225,0.0,0.0,91,0.00,,,0.00,WUHU21623XXSP,2013-01-15 14:01:00,
2013-01-15 09:06:00,62.2,59.6,29.67,SW,225,0.0,0.0,91,0.00,,,0.00,WUHU21623XXSP,2013-01-15 14:06:00,
2013-01-15 09:11:00,62.6,60.0,29.67,SW,225,0.0,0.0,91,0.00,,,0.00,WUHU21623XXSP,2013-01-15 14:11:00,
2013-01-15 09:16:00,63.1,60.5,29.67,SW,225,0.0,0.0,91,0.00,,,0.00,WUHU21623XXSP,2013-01-15 14:16:00,
2013-01-15 09:21:00,63.5,60.9,29.67,SW,225,0.0,0.0,91,0.00,,,0.00,WUHU21623XXSP,2013-01-15 14:21:00,
2013-01-15 09:26:00,64.2,61.8,29.67,SW,225,0.0,0.0,91,0.00,,,0.00,WUHU21623XXSP,2013-01-15 14:26:00,
2013-01-15 09:31:00,65.8,62.5,29.67,SSW,202,0.0,0.0,89,0.00,,,0.00,WUHU21623XXSP,2013-01-15 14:31:00,
2013-01-15 09:36:00,66.9,62.6,29.67,SSE,157,2.0,2.2,86,0.00,,,0.00,WUHU21623XXSP,2013-01-15 14:36:00,
2013-01-15 09:41:00,67.3,62.0,29.67,SSE,157,0.0,2.9,83,0.00,,,0.00,WUHU21623XXSP,2013-01-15 14:41:00,
2013-01-15 09:46:00,67.3,61.6,29.67,SSE,157,0.0,2.9,82,0.00,,,0.00,WUHU21623XXSP,2013-01-15 14:46:00,
2013-01-15 09:51:00,67.6,61.7,29.67,SSE,157,0.0,1.6,81,0.00,,,0.00,WUHU21623XXSP,2013-01-15 14:51:00,
2013-01-15 09:56:00,68.5,61.8,29.67,SSE,157,0.0,1.6,79,0.00,,,0.00,WUHU21623XXSP,2013-01-15 14:56:00,
2013-01-15 10:01:00,69.6,62.0,29.67,SE,135,0.0,0.0,77,0.00,,,0.00,WUHU21623XXSP,2013-01-15 15:01:00,
2013-01-15 10:06:00,70.3,62.3,29.66,SE,135,0.0,0.0,76,0.00,,,0.00,WUHU21623XXSP,2013-01-15 15:06:00,
2013-01-15 10:11:00,70.5,61.8,29.66,SE,135,0.2,4.0,74,0.00,,,0.00,WUHU21623XXSP,2013-01-15 15:11:00,
2013-01-15 10:16:00,71.2,62.1,29.66,SSE,157,2.2,4.0,73,0.00,,,0.00,WUHU21623XXSP,2013-01-15 15:16:00,
2013-01-15 10:21:00,71.4,61.9,29.67,SSW,202,1.8,3.4,72,0.00,,,0.00,WUHU21623XXSP,2013-01-15 15:21:00,
2013-01-15 10:26:00,71.2,61.7,29.67,SW,225,0.0,3.4,72,0.00,,,0.00,WUHU21623XXSP,2013-01-15 15:26:00,
2013-01-15 10:31:00,72.0,62.5,29.67,SSE,157,0.0,3.4,72,0.00,,,0.00,WUHU21623XXSP,2013-01-15 15:31:00,
2013-01-15 10:36:00,73.2,63.0,29.66,SSE,157,0.0,1.3,70,0.00,,,0.00,WUHU21623XXSP,2013-01-15 15:36:00,
2013-01-15 10:41:00,73.9,63.6,29.66,SW,225,0.0,0.7,70,0.00,,,0.00,WUHU21623XXSP,2013-01-15 15:41:00,
2013-01-15 10:46:00,74.5,62.8,29.67,SSW,202,0.0,5.6,67,0.00,,,0.00,WUHU21623XXSP,2013-01-15 15:46:00,
2013-01-15 10:51:00,74.8,63.1,29.66,SE,135,0.0,5.6,67,0.00,,,0.00,WUHU21623XXSP,2013-01-15 15:51:00,
2013-01-15 10:56:00,75.9,63.3,29.66,South,180,0.0,2.0,65,0.00,,,0.00,WUHU21623XXSP,2013-01-15 15:56:00,
2013-01-15 11:01:00,76.3,63.2,29.66,SW,225,0.0,5.6,64,0.00,,,0.00,WUHU21623XXSP,2013-01-15 16:01:00,
2013-01-15 11:06:00,78.4,64.4,29.66,South,180,0.0,5.6,62,0.00,,,0.00,WUHU21623XXSP,2013-01-15 16:06:00,
2013-01-15 11:12:00,79.5,64.0,29.65,SSE,157,0.0,3.1,59,0.00,,,0.00,WUHU21623XXSP,2013-01-15 16:12:00,
2013-01-15 11:17:00,80.4,63.8,29.65,NE,45,0.0,10.5,57,0.00,,,0.00,WUHU21623XXSP,2013-01-15 16:17:00,
2013-01-15 11:22:00,79.5,62.9,29.65,SE,135,0.0,10.5,57,0.00,,,0.00,WUHU21623XXSP,2013-01-15 16:22:00,
2013-01-15 11:27:00,79.5,62.4,29.65,West,270,0.0,5.1,56,0.00,,,0.00,WUHU21623XXSP,2013-01-15 16:27:00,
2013-01-15 11:32:00,78.4,62.5,29.64,South,180,0.0,5.1,58,0.00,,,0.00,WUHU21623XXSP,2013-01-15 16:32:00,
2013-01-15 11:37:00,78.3,62.8,29.64,SE,135,0.0,8.3,59,0.00,,,0.00,WUHU21623XXSP,2013-01-15 16:37:00,
2013-01-15 11:42:00,79.3,62.8,29.64,SE,135,0.0,8.3,57,0.00,,,0.00,WUHU21623XXSP,2013-01-15 16:42:00,
2013-01-15 11:47:00,80.4,62.7,29.63,SSE,157,0.0,4.7,55,0.00,,,0.00,WUHU21623XXSP,2013-01-15 16:47:00,
2013-01-15 11:52:00,80.6,62.9,29.63,South,180,0.0,5.1,55,0.00,,,0.00,WUHU21623XXSP,2013-01-15 16:52:00,
2013-01-15 11:57:00,80.8,63.0,29.63,SW,225,0.0,5.1,55,0.00,,,0.00,WUHU21623XXSP,2013-01-15 16:57:00,
2013-01-15 12:02:00,80.1,62.4,29.63,WSW,247,2.7,2.7,55,0.00,,,0.00,WUHU21623XXSP,2013-01-15 17:02:00,
2013-01-15 12:07:00,79.0,61.9,29.63,WSW,247,0.9,4.9,56,0.00,,,0.00,WUHU21623XXSP,2013-01-15 17:07:00,
2013-01-15 12:12:00,78.4,61.4,29.62,SW,225,0.0,5.4,56,0.00,,,0.00,WUHU21623XXSP,2013-01-15 17:12:00,
2013-01-15 12:17:00,78.4,61.9,29.62,SW,225,0.0,5.4,57,0.00,,,0.00,WUHU21623XXSP,2013-01-15 17:17:00,
2013-01-15 12:22:00,78.6,62.1,29.62,WSW,247,0.0,6.7,57,0.00,,,0.00,WUHU21623XXSP,2013-01-15 17:22:00,
2013-01-15 12:27:00,78.4,61.9,29.61,WSW,247,0.0,6.7,57,0.00,,,0.00,WUHU21623XXSP,2013-01-15 17:27:00,
2013-01-15 12:32:00,79.0,61.9,29.61,SW,225,0.0,4.0,56,0.00,,,0.00,WUHU21623XXSP,2013-01-15 17:32:00,
2013-01-15 12:38:00,81.0,62.7,29.61,SW,225,0.0,3.1,54,0.00,,,0.00,WUHU21623XXSP,2013-01-15 17:38:00,
2013-01-15 12:43:00,82.0,63.1,29.60,WSW,247,0.0,4.9,53,0.00,,,0.00,WUHU21623XXSP,2013-01-15 17:43:00,
2013-01-15 12:48:00,84.2,64.2,29.60,South,180,7.6,7.6,51,0.00,,,0.00,WUHU21623XXSP,2013-01-15 17:48:00,
2013-01-15 12:53:00,84.6,64.0,29.60,SW,225,1.1,7.6,50,0.00,,,0.00,WUHU21623XXSP,2013-01-15 17:53:00,
2013-01-15 12:58:00,85.1,63.9,29.60,WSW,247,2.5,6.9,49,0.00,,,0.00,WUHU21623XXSP,2013-01-15 17:58:00,
2013-01-15 13:03:00,87.4,64.7,29.59,South,180,0.0,6.9,47,0.00,,,0.00,WUHU21623XXSP,2013-01-15 18:03:00,
2013-01-15 13:09:00,87.4,64.1,29.59,SSE,157,5.8,5.8,46,0.00,,,0.00,WUHU21623XXSP,2013-01-15 18:09:00,
2013-01-15 13:14:00,84.2,62.4,29.59,South,180,0.0,5.8,48,0.00,,,0.00,WUHU21623XXSP,2013-01-15 18:14:00,
2013-01-15 13:19:00,84.9,62.4,29.59,SW,225,0.0,7.6,47,0.00,,,0.00,WUHU21623XXSP,2013-01-15 18:19:00,
2013-01-15 13:24:00,85.3,62.8,29.58,SSW,202,0.0,7.6,47,0.00,,,0.00,WUHU21623XXSP,2013-01-15 18:24:00,
2013-01-15 13:29:00,85.6,63.7,29.58,South,180,0.0,5.6,48,0.00,,,0.00,WUHU21623XXSP,2013-01-15 18:29:00,
2013-01-15 13:34:00,85.8,62.6,29.58,ESE,112,1.1,4.7,46,0.00,,,0.00,WUHU21623XXSP,2013-01-15 18:34:00,
2013-01-15 13:39:00,84.7,62.3,29.58,SSW,202,0.0,4.7,47,0.00,,,0.00,WUHU21623XXSP,2013-01-15 18:39:00,
2013-01-15 13:44:00,84.7,62.9,29.58,SE,135,0.0,4.5,48,0.00,,,0.00,WUHU21623XXSP,2013-01-15 18:44:00,
2013-01-15 13:49:00,85.6,63.1,29.57,ESE,112,0.0,4.5,47,0.00,,,0.00,WUHU21623XXSP,2013-01-15 18:49:00,
2013-01-15 13:54:00,85.3,62.8,29.58,WSW,247,1.3,1.3,47,0.00,,,0.00,WUHU21623XXSP,2013-01-15 18:54:00,
2013-01-15 13:59:00,84.0,62.2,29.57,SSW,202,0.0,1.3,48,0.00,,,0.00,WUHU21623XXSP,2013-01-15 18:59:00,
2013-01-15 14:05:00,82.6,61.4,29.57,WSW,247,0.0,3.4,49,0.00,,,0.00,WUHU21623XXSP,2013-01-15 19:05:00,
2013-01-15 14:10:00,81.3,60.9,29.57,SSW,202,0.0,3.8,50,0.00,,,0.00,WUHU21623XXSP,2013-01-15 19:10:00,
2013-01-15 14:15:00,80.4,60.6,29.57,South,180,0.0,6.7,51,0.00,,,0.00,WUHU21623XXSP,2013-01-15 19:15:00,
2013-01-15 14:20:00,81.3,61.4,29.57,WSW,247,0.0,6.7,51,0.00,,,0.00,WUHU21623XXSP,2013-01-15 19:20:00,
2013-01-15 14:25:00,81.5,61.6,29.57,WSW,247,0.0,0.4,51,0.00,,,0.00,WUHU21623XXSP,2013-01-15 19:25:00,
2013-01-15 14:31:00,80.1,60.8,29.56,SSW,202,0.0,2.7,52,0.00,,,0.00,WUHU21623XXSP,2013-01-15 19:31:00,
2013-01-15 14:36:00,79.2,60.5,29.56,WSW,247,0.0,2.5,53,0.00,,,0.00,WUHU21623XXSP,2013-01-15 19:36:00,
2013-01-15 14:41:00,78.4,60.4,29.56,SSE,157,0.0,3.1,54,0.00,,,0.00,WUHU21623XXSP,2013-01-15 19:41:00,
2013-01-15 14:46:00,77.9,60.4,29.56,SW,225,0.0,3.4,55,0.00,,,0.00,WUHU21623XXSP,2013-01-15 19:46:00,
2013-01-15 14:51:00,78.6,60.5,29.56,SW,225,0.0,4.7,54,0.00,,,0.00,WUHU21623XXSP,2013-01-15 19:51:00,
2013-01-15 14:56:00,78.6,60.5,29.56,WSW,247,0.0,4.7,54,0.00,,,0.00,WUHU21623XXSP,2013-01-15 19:56:00,
2013-01-15 15:01:00,77.7,60.2,29.56,WSW,247,0.0,6.0,55,0.00,,,0.00,WUHU21623XXSP,2013-01-15 20:01:00,
2013-01-15 15:06:00,77.5,60.5,29.56,SE,135,0.0,6.0,56,0.00,,,0.00,WUHU21623XXSP,2013-01-15 20:06:00,
2013-01-15 15:11:00,77.5,60.5,29.56,SSW,202,0.0,5.6,56,0.00,,,0.00,WUHU21623XXSP,2013-01-15 20:11:00,
2013-01-15 15:16:00,78.6,61.1,29.56,SSE,157,0.0,3.6,55,0.00,,,0.00,WUHU21623XXSP,2013-01-15 20:16:00,
2013-01-15 15:21:00,78.6,61.1,29.56,South,180,0.0,3.6,55,0.00,,,0.00,WUHU21623XXSP,2013-01-15 20:21:00,
2013-01-15 15:27:00,78.3,60.2,29.56,SSW,202,0.0,3.6,54,0.00,,,0.00,WUHU21623XXSP,2013-01-15 20:27:00,
2013-01-15 15:32:00,78.4,60.9,29.57,South,180,0.0,3.6,55,0.00,,,0.00,WUHU21623XXSP,2013-01-15 20:32:00,
2013-01-15 15:37:00,80.8,61.5,29.57,WSW,247,0.0,5.1,52,0.00,,,0.00,WUHU21623XXSP,2013-01-15 20:37:00,
2013-01-15 15:42:00,82.4,61.9,29.57,SW,225,0.0,7.4,50,0.00,,,0.00,WUHU21623XXSP,2013-01-15 20:42:00,
2013-01-15 15:47:00,81.1,61.3,29.56,ESE,112,0.7,7.4,51,0.00,,,0.00,WUHU21623XXSP,2013-01-15 20:47:00,
2013-01-15 15:52:00,79.7,60.5,29.57,WSW,247,0.0,6.0,52,0.00,,,0.00,WUHU21623XXSP,2013-01-15 20:52:00,
2013-01-15 15:57:00,78.6,60.0,29.57,WSW,247,0.0,3.8,53,0.00,,,0.00,WUHU21623XXSP,2013-01-15 20:57:00,
2013-01-15 16:02:00,78.1,60.6,29.57,WSW,247,0.0,3.8,55,0.00,,,0.00,WUHU21623XXSP,2013-01-15 21:02:00,
2013-01-15 16:07:00,77.2,59.7,29.57,SW,225,0.0,2.9,55,0.00,,,0.00,WUHU21623XXSP,2013-01-15 21:07:00,
2013-01-15 16:12:00,76.8,59.9,29.57,WSW,247,0.0,4.5,56,0.00,,,0.00,WUHU21623XXSP,2013-01-15 21:12:00,
2013-01-15 16:17:00,76.3,59.9,29.57,ESE,112,0.0,4.5,57,0.00,,,0.00,WUHU21623XXSP,2013-01-15 21:17:00,
2013-01-15 16:23:00,75.7,59.4,29.58,SE,135,0.0,3.6,57,0.00,,,0.00,WUHU21623XXSP,2013-01-15 21:23:00,
2013-01-15 16:28:00,75.4,59.6,29.57,ESE,112,0.0,3.6,58,0.00,,,0.00,WUHU21623XXSP,2013-01-15 21:28:00,
2013-01-15 16:33:00,75.0,59.3,29.57,SW,225,0.0,0.0,58,0.00,,,0.00,WUHU21623XXSP,2013-01-15 21:33:00,
2013-01-15 16:39:00,75.0,59.8,29.58,South,180,0.0,0.0,59,0.00,,,0.00,WUHU21623XXSP,2013-01-15 21:39:00,
2013-01-15 16:44:00,74.7,59.4,29.57,SE,135,0.0,11.0,59,0.00,,,0.00,WUHU21623XXSP,2013-01-15 21:44:00,
2013-01-15 16:49:00,74.1,59.4,29.57,SW,225,0.0,11.0,60,0.00,,,0.00,WUHU21623XXSP,2013-01-15 21:49:00,
2013-01-15 16:54:00,73.8,59.0,29.57,SW,225,0.0,6.0,60,0.00,,,0.00,WUHU21623XXSP,2013-01-15 21:54:00,
2013-01-15 16:59:00,73.2,58.9,29.58,SSE,157,0.0,5.6,61,0.00,,,0.00,WUHU21623XXSP,2013-01-15 21:59:00,
2013-01-15 17:04:00,73.0,59.2,29.58,SW,225,0.0,4.3,62,0.00,,,0.00,WUHU21623XXSP,2013-01-15 22:04:00,
2013-01-15 17:09:00,72.5,59.1,29.58,South,180,0.0,4.3,63,0.00,,,0.00,WUHU21623XXSP,2013-01-15 22:09:00,
2013-01-15 17:14:00,72.1,58.8,29.58,SSW,202,0.0,5.8,63,0.00,,,0.00,WUHU21623XXSP,2013-01-15 22:14:00,
2013-01-15 17:19:00,72.1,59.3,29.58,SW,225,0.0,5.8,64,0.00,,,0.00,WUHU21623XXSP,2013-01-15 22:19:00,
2013-01-15 17:24:00,71.8,58.9,29.58,South,180,0.0,5.1,64,0.00,,,0.00,WUHU21623XXSP,2013-01-15 22:24:00,
2013-01-15 17:29:00,71.4,59.0,29.59,South,180,0.0,0.0,65,0.00,,,0.00,WUHU21623XXSP,2013-01-15 22:29:00,
2013-01-15 17:34:00,70.9,58.5,29.59,South,180,0.0,0.0,65,0.00,,,0.00,WUHU21623XXSP,2013-01-15 22:34:00,
2013-01-15 17:39:00,70.5,58.6,29.59,South,180,0.0,0.0,66,0.00,,,0.00,WUHU21623XXSP,2013-01-15 22:39:00,
2013-01-15 17:44:00,70.3,58.8,29.59,South,180,0.0,0.0,67,0.00,,,0.00,WUHU21623XXSP,2013-01-15 22:44:00,
2013-01-15 17:49:00,70.0,58.5,29.59,SSW,202,3.1,5.1,67,0.00,,,0.00,WUHU21623XXSP,2013-01-15 22:49:00,
2013-01-15 17:54:00,69.8,58.7,29.59,SSW,202,0.0,5.1,68,0.00,,,0.00,WUHU21623XXSP,2013-01-15 22:54:00,
2013-01-15 17:59:00,69.6,58.5,29.59,SSW,202,0.0,0.0,68,0.00,,,0.00,WUHU21623XXSP,2013-01-15 22:59:00,
2013-01-15 18:04:00,69.4,58.4,29.59,SSW,202,0.0,0.0,68,0.00,,,0.00,WUHU21623XXSP,2013-01-15 23:04:00,
2013-01-15 18:09:00,69.4,58.8,29.59,SSW,202,0.0,0.0,69,0.00,,,0.00,WUHU21623XXSP,2013-01-15 23:09:00,
2013-01-15 18:14:00,69.3,58.6,29.59,SSW,202,0.0,0.0,69,0.00,,,0.00,WUHU21623XXSP,2013-01-15 23:14:00,
2013-01-15 18:19:00,68.9,58.3,29.60,SSW,202,0.0,0.0,69,0.00,,,0.00,WUHU21623XXSP,2013-01-15 23:19:00,
2013-01-15 18:24:00,68.7,58.6,29.60,SSW,202,0.0,0.0,70,0.00,,,0.00,WUHU21623XXSP,2013-01-15 23:24:00,
2013-01-15 18:29:00,68.5,58.4,29.60,SSW,202,0.0,0.0,70,0.00,,,0.00,WUHU21623XXSP,2013-01-15 23:29:00,
2013-01-15 18:34:00,68.2,58.1,29.60,SSW,202,0.0,0.0,70,0.00,,,0.00,WUHU21623XXSP,2013-01-15 23:34:00,
2013-01-15 18:39:00,68.0,57.9,29.60,SSW,202,0.0,0.0,70,0.00,,,0.00,WUHU21623XXSP,2013-01-15 23:39:00,
2013-01-15 18:44:00,67.6,57.9,29.60,SSW,202,0.0,0.0,71,0.00,,,0.00,WUHU21623XXSP,2013-01-15 23:44:00,
2013-01-15 18:49:00,67.5,58.1,29.59,SSW,202,0.0,0.0,72,0.00,,,0.00,WUHU21623XXSP,2013-01-15 23:49:00,
2013-01-15 18:54:00,67.6,58.3,29.59,SSW,202,0.0,0.0,72,0.00,,,0.00,WUHU21623XXSP,2013-01-15 23:54:00,
2013-01-15 18:59:00,67.5,58.1,29.59,SSW,202,0.0,0.0,72,0.00,,,0.00,WUHU21623XXSP,2013-01-15 23:59:00,
2013-01-15 19:04:00,67.6,58.7,29.59,SSW,202,0.0,0.0,73,0.00,,,0.00,WUHU21623XXSP,2013-01-16 00:04:00,
2013-01-15 19:09:00,67.8,58.9,29.59,SSW,202,0.0,0.0,73,0.00,,,0.00,WUHU21623XXSP,2013-01-16 00:09:00,
2013-01-15 19:14:00,67.8,58.9,29.59,SSW,202,0.0,0.0,73,0.00,,,0.00,WUHU21623XXSP,2013-01-16 00:14:00,
2013-01-15 19:19:00,68.2,59.2,29.58,SSW,202,0.0,0.0,73,0.00,,,0.00,WUHU21623XXSP,2013-01-16 00:19:00,
2013-01-15 19:24:00,68.5,59.2,29.59,SSW,202,0.0,0.0,72,0.00,,,0.00,WUHU21623XXSP,2013-01-16 00:24:00,
2013-01-15 19:29:00,68.5,59.2,29.58,SSW,202,0.0,0.0,72,0.00,,,0.00,WUHU21623XXSP,2013-01-16 00:29:00,
2013-01-15 19:34:00,68.4,59.0,29.58,SSW,202,0.0,0.0,72,0.00,,,0.00,WUHU21623XXSP,2013-01-16 00:34:00,
2013-01-15 19:39:00,68.4,59.0,29.58,SSW,202,0.0,0.0,72,0.00,,,0.00,WUHU21623XXSP,2013-01-16 00:39:00,
2013-01-15 19:44:00,68.2,59.2,29.57,SE,135,0.0,0.0,73,0.00,,,0.00,WUHU21623XXSP,2013-01-16 00:44:00,
2013-01-15 19:49:00,68.0,59.1,29.57,SSW,202,0.0,0.0,73,0.00,,,0.00,WUHU21623XXSP,2013-01-16 00:49:00,
2013-01-15 19:54:00,67.8,58.9,29.57,SSW,202,0.0,0.0,73,0.00,,,0.00,WUHU21623XXSP,2013-01-16 00:54:00,
2013-01-15 20:00:00,67.8,58.9,29.56,SSE,157,0.0,0.0,73,0.00,,,0.00,WUHU21623XXSP,2013-01-16 01:00:00,
2013-01-15 20:05:00,67.6,58.7,29.56,SE,135,0.0,4.3,73,0.00,,,0.00,WUHU21623XXSP,2013-01-16 01:05:00,
2013-01-15 20:10:00,67.6,58.7,29.56,SSW,202,0.0,4.3,73,0.00,,,0.00,WUHU21623XXSP,2013-01-16 01:10:00,
2013-01-15 20:15:00,67.6,58.7,29.57,South,180,0.0,0.0,73,0.00,,,0.00,WUHU21623XXSP,2013-01-16 01:15:00,
2013-01-15 20:20:00,67.6,58.7,29.56,South,180,0.0,0.0,73,0.00,,,0.00,WUHU21623XXSP,2013-01-16 01:20:00,
2013-01-15 20:25:00,67.6,58.7,29.55,SSE,157,0.0,0.0,73,0.00,,,0.00,WUHU21623XXSP,2013-01-16 01:25:00,
2013-01-15 20:30:00,67.5,58.9,29.55,SSW,202,0.0,0.0,74,0.00,,,0.00,WUHU21623XXSP,2013-01-16 01:30:00,
2013-01-15 20:35:00,67.3,58.7,29.55,SW,225,0.4,4.0,74,0.00,,,0.00,WUHU21623XXSP,2013-01-16 01:35:00,
2013-01-15 20:40:00,67.5,58.9,29.55,SW,225,0.0,4.0,74,0.00,,,0.00,WUHU21623XXSP,2013-01-16 01:40:00,
2013-01-15 20:45:00,67.5,58.9,29.55,SW,225,0.0,3.1,74,0.00,,,0.00,WUHU21623XXSP,2013-01-16 01:45:00,
2013-01-15 20:50:00,67.6,59.1,29.55,SSW,202,0.0,3.1,74,0.00,,,0.00,WUHU21623XXSP,2013-01-16 01:50:00,
2013-01-15 20:55:00,67.6,59.1,29.55,South,180,0.0,0.0,74,0.00,,,0.00,WUHU21623XXSP,2013-01-16 01:55:00,
2013-01-15 21:00:00,67.6,59.1,29.55,SSW,202,0.0,0.0,74,0.00,,,0.00,WUHU21623XXSP,2013-01-16 02:00:00,
2013-01-15 21:05:00,67.6,59.1,29.55,SSW,202,0.0,1.6,74,0.00,,,0.00,WUHU21623XXSP,2013-01-16 02:05:00,
2013-01-15 21:10:00,67.6,59.1,29.55,SSW,202,0.0,1.6,74,0.00,,,0.00,WUHU21623XXSP,2013-01-16 02:10:00,
2013-01-15 21:15:00,67.6,59.1,29.55,South,180,0.0,0.0,74,0.00,,,0.00,WUHU21623XXSP,2013-01-16 02:15:00,
2013-01-15 21:20:00,67.6,59.1,29.55,South,180,0.0,0.0,74,0.00,,,0.00,WUHU21623XXSP,2013-01-16 02:20:00,
2013-01-15 21:25:00,67.6,59.1,29.55,South,180,0.0,0.0,74,0.00,,,0.00,WUHU21623XXSP,2013-01-16 02:25:00,
2013-01-15 21:30:00,67.6,59.1,29.55,SSE,157,0.0,0.0,74,0.00,,,0.00,WUHU21623XXSP,2013-01-16 02:30:00,
2013-01-15 21:35:00,67.6,59.1,29.55,SSE,157,0.0,0.0,74,0.00,,,0.00,WUHU21623XXSP,2013-01-16 02:35:00,
2013-01-15 21:40:00,67.6,59.1,29.56,SSE,157,0.0,0.0,74,0.00,,,0.00,WUHU21623XXSP,2013-01-16 02:40:00,
2013-01-15 21:45:00,67.8,59.3,29.56,SSE,157,0.0,0.0,74,0.00,,,0.00,WUHU21623XXSP,2013-01-16 02:45:00,
2013-01-15 21:50:00,67.6,59.1,29.55,SSE,157,0.0,0.0,74,0.00,,,0.00,WUHU21623XXSP,2013-01-16 02:50:00,
2013-01-15 21:55:00,67.6,59.1,29.54,WNW,292,0.0,0.0,74,0.00,,,0.00,WUHU21623XXSP,2013-01-16 02:55:00,
2013-01-15 22:00:00,67.6,59.1,29.54,WSW,247,0.0,0.0,74,0.00,,,0.00,WUHU21623XXSP,2013-01-16 03:00:00,
2013-01-15 22:05:00,67.3,58.7,29.54,SSE,157,0.0,0.0,74,0.00,,,0.00,WUHU21623XXSP,2013-01-16 03:05:00,
2013-01-15 22:10:00,67.3,58.7,29.54,South,180,0.0,0.0,74,0.00,,,0.00,WUHU21623XXSP,2013-01-16 03:10:00,
2013-01-15 22:15:00,67.3,58.7,29.54,SSW,202,0.0,4.5,74,0.00,,,0.00,WUHU21623XXSP,2013-01-16 03:15:00,
2013-01-15 22:20:00,67.3,58.7,29.54,SW,225,0.0,4.5,74,0.00,,,0.00,WUHU21623XXSP,2013-01-16 03:20:00,
2013-01-15 22:25:00,67.1,58.5,29.54,SSE,157,0.0,2.7,74,0.00,,,0.00,WUHU21623XXSP,2013-01-16 03:25:00,
2013-01-15 22:30:00,66.9,58.4,29.54,South,180,0.0,3.6,74,0.00,,,0.00,WUHU21623XXSP,2013-01-16 03:30:00,
2013-01-15 22:35:00,66.9,58.4,29.54,SW,225,0.0,3.6,74,0.00,,,0.00,WUHU21623XXSP,2013-01-16 03:35:00,
2013-01-15 22:41:00,66.6,58.0,29.55,SW,225,0.0,0.0,74,0.00,,,0.00,WUHU21623XXSP,2013-01-16 03:41:00,
2013-01-15 22:46:00,66.2,58.0,29.55,SW,225,0.0,0.0,75,0.00,,,0.00,WUHU21623XXSP,2013-01-16 03:46:00,
2013-01-15 22:51:00,65.8,57.7,29.55,SW,225,0.0,0.0,75,0.00,,,0.00,WUHU21623XXSP,2013-01-16 03:51:00,
2013-01-15 22:56:00,65.7,57.5,29.54,SE,135,0.0,2.5,75,0.00,,,0.00,WUHU21623XXSP,2013-01-16 03:56:00,
2013-01-15 23:01:00,65.7,57.9,29.54,SSE,157,0.0,2.5,76,0.00,,,0.00,WUHU21623XXSP,2013-01-16 04:01:00,
2013-01-15 23:06:00,65.7,57.9,29.55,SSE,157,0.0,0.0,76,0.00,,,0.00,WUHU21623XXSP,2013-01-16 04:06:00,
2013-01-15 23:11:00,65.8,58.0,29.55,SSE,157,0.0,0.0,76,0.00,,,0.00,WUHU21623XXSP,2013-01-16 04:11:00,
2013-01-15 23:16:00,66.0,58.2,29.55,SW,225,0.0,0.0,76,0.00,,,0.00,WUHU21623XXSP,2013-01-16 04:16:00,
2013-01-15 23:21:00,66.0,58.2,29.54,South,180,0.0,6.0,76,0.00,,,0.00,WUHU21623XXSP,2013-01-16 04:21:00,
2013-01-15 23:26:00,66.4,58.6,29.54,SSW,202,0.0,6.0,76,0.00,,,0.00,WUHU21623XXSP,2013-01-16 04:26:00,
2013-01-15 23:31:00,66.4,58.6,29.54,SSW,202,0.0,5.4,76,0.00,,,0.00,WUHU21623XXSP,2013-01-16 04:31:00,
2013-01-15 23:36:00,66.6,58.7,29.54,South,180,0.0,4.0,76,0.00,,,0.00,WUHU21623XXSP,2013-01-16 04:36:00,
2013-01-15 23:41:00,66.4,58.6,29.55,SSW,202,0.0,4.0,76,0.00,,,0.00,WUHU21623XXSP,2013-01-16 04:41:00,
2013-01-15 23:46:00,66.2,58.4,29.55,SSW,202,0.0,0.0,76,0.00,,,0.00,WUHU21623XXSP,2013-01-16 04:46:00,
2013-01-15 23:51:00,66.2,58.8,29.55,WSW,247,0.0,0.7,77,0.00,,,0.00,WUHU21623XXSP,2013-01-16 04:51:00,
2013-01-15 23:56:00,66.0,58.6,29.55,SW,225,0.0,0.7,77,0.00,,,0.00,WUHU21623XXSP,2013-01-16 04:56:00,